{"data":{"norad_id":65887,"intl_designator":"2025-224F","name":"STARLINK-35332","alt_names":[],"object_type":"PAYLOAD","status":"ACTIVE","operator":null,"country":"US","launch_date":"2025-10-07","launch_site_code":"AFETR","launch_vehicle":null,"mission":null,"orbit_class":"UNKNOWN","rcs_meters":null,"size_class":null,"mass_kg":null,"dimensions":null,"purposes":["comms"],"wikipedia_slug":null,"has_3d_model":false,"image_url":null,"decayed_at":null,"tle_current":{"epoch":"2026-09-20T06:40:58.924128Z","epoch_age_seconds":125348,"freshness":"FRESH","line1":"1 65887U 25224F   26263.27845977  .00012765  00000+0  38818-3 0  9998","line2":"2 65887  53.1576 182.7603 0001325  84.6644 275.4510 15.34408371 54710","mean_motion":15.34408371,"eccentricity":0.0001325,"inclination_deg":53.1576,"raan_deg":182.7603,"arg_perigee_deg":84.6644,"mean_anomaly_deg":275.451,"bstar":0.00038818,"rev_number":5471,"period_min":93.847246092742,"perigee_km":461.77195190892,"apogee_km":463.5847679793,"semimajor_km":6840.8153599441,"source":"CELESTRAK","updated_at":"2026-09-21T09:00:35.755880Z"}}}